User: anonymous   Login
Location: Unspecified
(0.0000°N, 0.0000°E)
Time: 17:19:52
(UTC+00:00)
Language:

HODOYOSHI 1 - Orbit

View from above orbital plane
View from above orbital plane
View from above satellite
View from above satellite

Ground track
Ground track

The orbit data is extracted from the following two-line orbital elements,

1 40299U 14070B   21337.13291872  .00002069  00000-0  84905-4 0  9992
2 40299  97.2703  46.0334 0014312 109.7403 307.5569 15.25236311393121
Epoch (UTC): 03 December 2021 03:11:24
Eccentricity: 0.0014312
inclination: 97.2703°
perigee height: 480 km
apogee height: 500 km
right ascension of ascending node: 46.0334°
argument of perigee: 109.7403°
revolutions per day: 15.25236311
mean anomaly at epoch: 307.5569°
orbit number at epoch: 39312

The dashed part of the orbit path shows where the satellite is in the earth's shadow,  

DLR